{"data":{"norad_id":51813,"epoch":"2026-09-20T02:30:38.780064Z","epoch_age_seconds":86220,"freshness":"FRESH","line1":"1 51813U 22017AX  26263.10461551 -.00000094  00000+0  82247-5 0  9993","line2":"2 51813  53.1615 165.2641 0001285  61.4234 298.6898 15.35396117253586","mean_motion":15.35396117,"eccentricity":0.0001285,"inclination_deg":53.1615,"raan_deg":165.2641,"arg_perigee_deg":61.4234,"mean_anomaly_deg":298.6898,"bstar":8.2247e-6,"rev_number":25358,"period_min":93.786872589831,"perigee_km":458.86550360412,"apogee_km":460.62283906515,"semimajor_km":6837.8811713346,"source":"CELESTRAK","updated_at":"2026-09-20T09:00:39.943893Z"}}